Total_Precipitation_Accumulation
0.00 0.00 0.00 0.00 0.00 0.02 0.06 0.08 0.12 0.21 0.27 0.26 0.28 0.32 0.33 0.42 0.55 1.11 0.69 0.28 0.18 0.08 0.05 0.04 0.04 0.06 0.09 0.10 0.13 0.15 0.15 0.14 0.13 0.12 0.11 0.11 0.12 0.11 0.11 0.12 0.15 0.19 0.22 0.20 0.19 0.19 0.18 0.15 0.12
0.00 0.00 0.00 0.00 0.00 0.04 0.09 0.10 0.16 0.24 0.24 0.23 0.25 0.29 0.26 0.28 0.26 0.24 0.33 0.23 0.17 0.10 0.07 0.04 0.04 0.05 0.06 0.08 0.10 0.14 0.16 0.15 0.13 0.12 0.11 0.11 0.12 0.13 0.14 0.16 0.20 0.26 0.31 0.32 0.26 0.22 0.19 0.16 0.12
0.00 0.00 0.00 0.00 0.00 0.06 0.12 0.13 0.18 0.20 0.19 0.25 0.30 0.37 0.38 0.31 0.28 0.25 0.29 0.20 0.18 0.13 0.09 0.06 0.05 0.05 0.05 0.06 0.09 0.14 0.16 0.16 0.16 0.17 0.16 0.14 0.14 0.15 0.18 0.22 0.26 0.31 0.34 0.32 0.28 0.26 0.23 0.17 0.12
0.00 0.00 0.00 0.00 0.01 0.05 0.16 0.18 0.21 0.23 0.21 0.22 0.24 0.43 0.49 0.39 0.37 0.33 0.30 0.24 0.20 0.16 0.11 0.08 0.09 0.09 0.07 0.07 0.08 0.12 0.16 0.18 0.19 0.20 0.20 0.19 0.18 0.19 0.24 0.31 0.35 0.33 0.33 0.33 0.33 0.32 0.26 0.19 0.13
0.00 0.00 0.00 0.00 0.02 0.08 0.19 0.22 0.25 0.24 0.22 0.23 0.31 0.53 0.66 0.60 0.54 0.51 0.43 0.36 0.29 0.23 0.19 0.14 0.14 0.13 0.13 0.11 0.11 0.15 0.20 0.24 0.30 0.33 0.30 0.25 0.24 0.26 0.30 0.37 0.40 0.38 0.41 0.40 0.37 0.30 0.23 0.16 0.15
0.00 0.00 0.00 0.01 0.03 0.09 0.15 0.22 0.20 0.23 0.25 0.27 0.40 0.77 1.04 1.04 0.98 0.86 0.77 0.52 0.40 0.29 0.32 0.27 0.21 0.19 0.19 0.18 0.18 0.22 0.28 0.33 0.37 0.38 0.33 0.29 0.28 0.28 0.33 0.36 0.37 0.39 0.39 0.34 0.26 0.20 0.16 0.16 0.17
0.00 0.00 0.00 0.01 0.05 0.12 0.16 0.19 0.20 0.26 0.27 0.32 0.50 0.76 1.02 1.18 1.24 1.17 1.04 0.80 0.71 0.57 0.58 0.48 0.35 0.31 0.30 0.33 0.33 0.30 0.29 0.31 0.36 0.39 0.33 0.27 0.27 0.26 0.28 0.29 0.31 0.31 0.26 0.22 0.20 0.17 0.15 0.14 0.14
0.00 0.00 0.00 0.02 0.06 0.11 0.22 0.24 0.26 0.30 0.31 0.36 0.62 0.86 1.19 1.23 1.09 1.21 1.18 1.04 1.05 1.02 0.96 0.63 0.44 0.43 0.49 0.48 0.44 0.42 0.36 0.36 0.36 0.34 0.33 0.28 0.26 0.26 0.28 0.26 0.28 0.29 0.27 0.24 0.21 0.17 0.17 0.17 0.16
0.00 0.00 0.01 0.02 0.07 0.12 0.18 0.28 0.29 0.22 0.24 0.37 0.61 0.82 0.99 1.00 0.99 1.24 1.27 1.37 1.41 1.22 1.03 0.86 0.67 0.61 0.61 0.57 0.48 0.47 0.46 0.45 0.44 0.41 0.39 0.36 0.36 0.40 0.41 0.37 0.39 0.36 0.35 0.29 0.27 0.24 0.22 0.20 0.19
0.00 0.00 0.01 0.03 0.05 0.12 0.19 0.26 0.22 0.21 0.20 0.33 0.54 0.78 0.98 0.95 1.12 1.28 1.38 1.64 1.49 1.36 1.19 1.10 0.99 0.87 0.79 0.65 0.66 0.64 0.60 0.61 0.56 0.63 0.58 0.61 0.77 0.83 0.75 0.83 0.70 0.57 0.47 0.42 0.42 0.39 0.32 0.29 0.28
0.00 0.01 0.02 0.05 0.05 0.09 0.18 0.26 0.23 0.27 0.38 0.64 0.82 0.87 0.87 0.90 1.11 1.37 1.63 1.93 1.88 1.62 1.34 1.27 1.28 1.30 1.24 1.19 1.06 0.90 0.89 0.92 0.84 0.93 0.86 0.96 1.08 1.04 1.07 1.19 1.01 0.85 0.71 0.67 0.72 0.58 0.49 0.47 0.53
0.01 0.03 0.07 0.08 0.11 0.17 0.25 0.37 0.48 0.46 0.52 0.69 0.78 0.82 0.90 0.96 1.12 1.37 1.64 1.86 2.01 1.93 1.72 1.74 1.55 1.46 1.53 1.70 1.60 1.23 1.15 1.13 1.05 1.20 1.17 1.31 1.47 1.49 1.56 1.58 1.37 1.28 1.20 1.17 1.07 1.00 0.86 0.76 0.72
0.01 0.04 0.09 0.07 0.13 0.23 0.34 0.41 0.49 0.42 0.32 0.44 0.55 0.71 0.91 0.92 1.06 1.25 1.61 2.11 2.35 2.32 2.15 2.10 1.93 1.80 1.85 2.05 2.00 1.56 1.47 1.58 1.74 1.84 1.68 1.63 1.63 1.71 1.87 1.80 1.70 1.62 1.67 1.60 1.45 1.28 1.29 1.25 1.08
0.01 0.03 0.05 0.07 0.13 0.16 0.24 0.27 0.38 0.49 0.41 0.43 0.50 0.62 0.88 1.14 1.39 1.60 1.85 2.30 2.59 2.64 2.47 2.35 2.19 2.14 2.13 2.21 2.17 2.15 1.95 1.99 2.14 2.20 2.12 1.98 1.98 2.13 2.27 2.25 2.10 1.91 1.93 1.85 1.72 1.62 1.61 1.53 1.48
0.02 0.02 0.04 0.08 0.14 0.14 0.16 0.29 0.42 0.46 0.40 0.42 0.50 0.63 0.87 1.17 1.40 1.64 2.08 2.37 2.43 2.37 2.30 2.35 2.25 2.31 2.38 2.42 2.32 2.44 2.49 2.54 2.64 2.65 2.46 2.26 2.25 2.53 2.54 2.56 2.37 2.21 2.17 2.21 2.11 2.01 1.95 1.73 1.62
0.03 0.03 0.06 0.11 0.14 0.17 0.14 0.30 0.46 0.35 0.30 0.33 0.49 0.68 0.81 0.96 1.26 1.55 1.89 2.13 2.23 2.48 2.55 2.58 2.57 2.55 2.55 2.63 2.64 2.67 2.70 3.00 3.04 3.05 2.98 2.69 2.55 2.68 2.78 2.78 2.64 2.47 2.35 2.50 2.60 2.49 2.36 2.16 2.08
0.03 0.04 0.07 0.12 0.14 0.16 0.16 0.26 0.36 0.32 0.31 0.40 0.60 0.87 0.87 0.98 1.29 1.64 1.95 2.17 2.32 2.49 2.75 2.73 2.68 2.78 2.75 2.79 2.73 2.92 3.13 3.21 3.15 3.15 3.19 3.09 2.97 3.04 3.06 3.00 2.98 2.93 2.93 2.91 2.75 2.77 2.62 2.60 2.51
0.04 0.06 0.08 0.13 0.15 0.14 0.18 0.29 0.36 0.37 0.40 0.59 0.73 0.85 0.97 1.04 1.14 1.38 1.76 2.19 2.42 2.49 2.51 2.68 2.70 2.80 2.84 3.04 3.07 3.15 3.32 3.47 3.61 3.79 3.85 3.63 3.56 3.46 3.55 3.49 3.41 3.38 3.33 3.17 3.12 3.06 2.87 2.70 2.57
0.05 0.07 0.08 0.11 0.15 0.17 0.22 0.30 0.40 0.49 0.57 0.60 0.60 0.64 0.73 0.99 1.15 1.37 1.70 2.06 2.60 2.66 2.58 2.69 2.90 3.02 3.11 3.36 3.46 3.63 3.95 4.15 4.31 4.40 4.31 4.23 4.09 4.14 4.12 3.97 3.73 3.57 3.57 3.47 3.40 3.22 3.05 2.82 2.62
0.04 0.09 0.11 0.11 0.14 0.20 0.32 0.40 0.50 0.57 0.58 0.57 0.65 0.78 0.89 1.12 1.40 1.54 1.73 2.16 2.62 2.84 2.91 2.94 3.15 3.43 3.70 3.93 4.29 4.62 4.90 5.10 5.27 5.31 4.87 4.62 4.50 4.44 4.38 4.38 4.29 4.04 3.86 3.64 3.42 3.32 3.18 2.84 2.64
0.04 0.07 0.12 0.14 0.14 0.20 0.36 0.55 0.67 0.72 0.70 0.76 0.96 1.17 1.29 1.34 1.60 1.70 1.87 2.22 2.57 2.77 2.91 3.04 3.30 3.72 4.26 4.62 5.05 5.48 5.67 5.72 5.55 5.30 5.18 5.03 4.87 4.73 4.57 4.42 4.17 3.97 3.83 3.69 3.48 3.26 3.12 2.88 2.69
0.03 0.05 0.10 0.10 0.10 0.18 0.31 0.59 0.88 0.92 0.97 1.11 1.28 1.27 1.36 1.51 1.72 1.85 2.04 2.27 2.56 2.78 2.89 3.22 3.73 4.32 4.86 5.31 5.86 6.39 6.54 6.37 6.06 5.63 5.24 4.95 4.66 4.33 4.08 3.94 3.84 3.69 3.40 3.16 3.00 2.84 2.65 2.51 2.39
0.04 0.04 0.08 0.09 0.05 0.12 0.23 0.46 1.01 1.17 1.23 1.45 1.68 1.43 1.38 1.42 1.51 1.73 1.89 2.05 2.40 2.56 2.76 3.13 3.72 4.42 5.11 5.92 6.60 7.00 6.91 6.60 6.21 5.56 4.98 4.48 4.09 3.76 3.49 3.36 3.18 2.96 2.62 2.28 2.16 2.19 2.22 2.18 2.10
0.05 0.04 0.06 0.08 0.07 0.13 0.18 0.40 0.99 1.41 1.56 1.70 1.64 1.47 1.40 1.30 1.27 1.34 1.39 1.65 1.96 2.23 2.48 2.87 3.50 4.24 4.90 5.53 6.04 6.20 6.14 5.97 5.50 4.83 4.25 3.89 3.56 3.23 2.85 2.52 2.22 2.00 1.83 1.61 1.55 1.57 1.67 1.81 1.87
0.06 0.06 0.16 0.24 0.27 0.25 0.24 0.45 1.00 1.37 1.54 1.50 1.42 1.41 1.23 1.15 1.14 1.12 1.15 1.33 1.64 1.86 2.18 2.58 3.03 3.64 4.08 4.43 4.82 4.96 4.99 4.82 4.56 4.15 3.74 3.36 2.89 2.55 2.26 1.95 1.75 1.58 1.47 1.37 1.30 1.28 1.29 1.38 1.51
0.05 0.06 0.21 0.38 0.36 0.39 0.44 0.77 1.27 1.37 1.37 1.30 1.23 1.20 1.13 1.12 1.12 1.13 1.18 1.31 1.54 1.68 1.88 2.06 2.34 2.69 2.84 2.90 3.10 3.31 3.35 3.36 3.30 3.08 2.84 2.57 2.23 1.87 1.60 1.38 1.23 1.14 1.12 1.09 1.09 1.09 1.10 1.13 1.20
0.05 0.05 0.10 0.17 0.19 0.43 0.73 1.12 1.59 1.54 1.46 1.40 1.39 1.22 1.13 1.07 1.04 1.11 1.15 1.13 1.17 1.26 1.33 1.41 1.55 1.71 1.77 1.84 1.87 1.96 2.05 2.08 2.03 1.92 1.74 1.56 1.40 1.20 1.04 0.93 0.90 0.84 0.81 0.81 0.80 0.81 0.85 0.92 0.97
0.06 0.08 0.11 0.18 0.39 0.63 0.90 1.38 1.99 2.05 1.74 1.46 1.27 1.07 0.96 0.94 0.97 1.05 1.07 0.98 0.96 0.95 0.98 1.03 1.09 1.17 1.26 1.31 1.30 1.31 1.34 1.31 1.23 1.15 1.11 1.02 0.93 0.84 0.77 0.69 0.64 0.59 0.56 0.55 0.56 0.58 0.59 0.64 0.72
0.10 0.13 0.16 0.21 0.29 0.60 1.04 1.72 2.01 2.25 2.13 1.68 1.33 1.15 1.04 0.94 0.89 0.93 0.93 0.84 0.79 0.78 0.79 0.83 0.86 0.88 0.92 0.95 0.97 0.98 0.95 0.90 0.88 0.84 0.81 0.75 0.67 0.59 0.52 0.47 0.44 0.43 0.43 0.43 0.48 0.51 0.53 0.54 0.56
0.12 0.15 0.22 0.43 0.47 0.49 0.97 1.87 1.98 2.29 2.35 2.03 1.71 1.55 1.45 1.17 1.01 0.97 0.90 0.78 0.71 0.69 0.67 0.69 0.70 0.72 0.77 0.75 0.73 0.75 0.69 0.63 0.62 0.61 0.55 0.50 0.48 0.44 0.39 0.36 0.35 0.36 0.36 0.36 0.37 0.39 0.42 0.47 0.48